Weather reports worldwide

Advertisment
Geilenkirchen, Germany (10500): temperature & dewpoint: 14.01.2021 14:00:00 - 20.01.2021 14:00:00 (CET)Geilenkirchen, Germany (10500): wind speed & gusts: 14.01.2021 14:00:00 - 20.01.2021 14:00:00 (CET)Geilenkirchen, Germany (10500): wind direction: 14.01.2021 14:00:00 - 20.01.2021 14:00:00 (CET)Geilenkirchen, Germany (10500): reduced air pressure: 14.01.2021 14:00:00 - 20.01.2021 14:00:00 (CET)Geilenkirchen, Germany (10500): visibility: 14.01.2021 14:00:00 - 20.01.2021 14:00:00 (CET)
Date & Time tt [°C] td [°C] ff [km/h] ff [kn] fx [km/h] fx [kn] dd ppp [hPa] vv [km]
20.01.2021 14:00:00 14,7 1,2 21 11 - - SSW 998,3 10
20.01.2021 13:00:00 10,7 0,6 24 13 - - SW 999,4 10
20.01.2021 12:00:00 10,1 0,5 24 13 50 27 SSW 1000,2 10
20.01.2021 11:00:00 9,2 1,1 18 10 - - SW 1000,7 10
20.01.2021 10:00:00 8,6 2,0 18 10 - - SSW 1001,0 10
20.01.2021 09:00:00 9,1 2,9 22 12 54 29 SW 1001,5 25
20.01.2021 08:00:00 9,0 3,0 18 10 50 27 SW 1001,4 10
20.01.2021 07:00:00 9,1 2,5 25 14 - - SW 1001,9 25
20.01.2021 06:00:00 8,9 1,3 18 10 - - SSW 1002,1 10
20.01.2021 05:00:00 8,6 2,1 24 13 50 27 SW 1002,9 10
20.01.2021 04:00:00 8,1 2,6 26 14 - - SW 1003,6 10
20.01.2021 03:00:00 7,3 1,9 24 13 54 29 SW 1004,2 10
20.01.2021 02:00:00 6,6 1,8 24 13 61 33 SW 1004,6 10
20.01.2021 01:00:00 6,1 1,8 26 14 - - SW 1005,7 10
20.01.2021 00:00:00 6,1 2,6 18 10 47 25 SW 1006,4 10
19.01.2021 23:00:00 6,2 3,5 16 9 - - SW 1007,2 10
19.01.2021 22:00:00 6,1 3,7 16 9 - - SW 1008,0 10
19.01.2021 21:00:00 5,9 4,0 16 9 - - SW 1008,5 10
19.01.2021 20:00:00 5,6 4,3 18 10 58 31 SW 1008,9 18
19.01.2021 19:00:00 6,2 4,7 28 15 - - SW 1008,8 10
19.01.2021 18:00:00 6,5 5,4 24 13 61 33 WSW 1008,7 8
19.01.2021 17:00:00 6,8 6,1 22 12 47 25 SW 1008,5 6
19.01.2021 16:00:00 7,1 6,3 24 13 - - SW 1008,2 10
19.01.2021 15:00:00 7,6 6,1 34 18 65 35 WSW 1007,9 10
19.01.2021 14:00:00 7,5 6,2 34 18 65 35 WSW 1007,7 8
19.01.2021 13:00:00 7,3 5,4 35 19 - - WSW 1008,1 10
19.01.2021 12:00:00 6,1 4,4 31 17 83 45 SW 1008,0 10
19.01.2021 11:00:00 5,4 4,1 29 16 72 39 SW 1008,2 7
19.01.2021 10:00:00 5,3 3,9 29 16 - - SW 1008,3 6
19.01.2021 09:00:00 5,1 3,8 34 18 58 31 SW 1008,5 6
19.01.2021 08:00:00 5,2 3,5 28 15 61 33 SW 1010,2 10
19.01.2021 07:00:00 5,5 3,1 29 16 - - SW 1011,1 10
19.01.2021 06:00:00 5,3 3,0 26 14 54 29 SW 1012,3 10
19.01.2021 05:00:00 5,1 2,0 22 12 54 29 SW 1013,6 10
19.01.2021 04:00:00 4,5 1,7 18 10 - - SSW 1015,2 10
19.01.2021 03:00:00 4,7 1,6 21 11 - - SW 1016,9 10
19.01.2021 02:00:00 5,1 2,1 18 10 - - SW 1017,6 10
19.01.2021 01:00:00 5,2 2,6 18 10 - - SW 1018,6 10
19.01.2021 00:00:00 5,3 3,1 16 9 - - SW 1019,2 10
18.01.2021 23:00:00 5,3 3,5 18 10 - - WSW 1020,0 10
18.01.2021 22:00:00 5,2 3,5 22 12 - - WSW 1020,4 10
18.01.2021 21:00:00 5,4 3,4 18 10 - - WSW 1020,9 10
18.01.2021 20:00:00 5,3 3,3 22 12 - - WSW 1021,4 10
18.01.2021 19:00:00 5,5 3,2 22 12 - - WSW 1021,2 10
18.01.2021 18:00:00 5,2 3,3 18 10 - - WSW 1021,3 10
18.01.2021 17:00:00 5,7 3,2 18 10 - - WSW 1021,5 10
18.01.2021 16:00:00 5,9 3,3 22 12 - - WSW 1022,0 10
18.01.2021 15:00:00 6,1 3,1 18 10 - - WSW 1022,1 10
18.01.2021 14:00:00 6,3 3,0 29 16 - - WSW 1022,4 20
18.01.2021 13:00:00 6,2 3,1 24 13 - - WSW 1023,0 10
18.01.2021 12:00:00 5,8 3,1 18 10 - - WSW 1023,8 10
18.01.2021 11:00:00 4,0 2,4 18 10 - - WSW 1024,4 10
18.01.2021 10:00:00 4,0 2,5 16 9 - - SW 1024,3 10
18.01.2021 09:00:00 3,8 2,5 15 8 - - SW 1024,1 10
18.01.2021 08:00:00 3,6 2,7 13 7 - - WSW 1024,3 10
18.01.2021 07:00:00 3,9 2,9 16 9 - - WSW 1024,1 10
18.01.2021 06:00:00 4,0 2,8 14 8 - - WSW 1024,1 15
18.01.2021 05:00:00 3,9 2,8 9 5 - - SW 1024,4 10
18.01.2021 04:00:00 3,9 2,9 11 6 - - WSW 1024,3 10
18.01.2021 03:00:00 4,1 2,9 9 5 - - WSW 1024,4 10
18.01.2021 02:00:00 4,1 3,0 15 8 - - WSW 1024,6 10
18.01.2021 01:00:00 4,2 3,5 15 8 - - WSW 1024,7 10
18.01.2021 00:00:00 4,5 3,8 15 8 - - W 1024,5 10
17.01.2021 23:00:00 4,6 3,7 16 9 - - W 1024,1 10
17.01.2021 22:00:00 4,6 3,9 13 7 - - WNW 1023,9 8
17.01.2021 21:00:00 4,8 3,9 21 11 - - W 1023,5 10
17.01.2021 20:00:00 - - - - - - - - -
17.01.2021 19:00:00 - - - - - - - - -
17.01.2021 18:00:00 - - - - - - - - -
17.01.2021 17:00:00 - - - - - - - - -
17.01.2021 16:00:00 - - - - - - - - -
17.01.2021 15:00:00 - - - - - - - - -
17.01.2021 14:00:00 - - - - - - - - -
17.01.2021 13:00:00 - - - - - - - - -
17.01.2021 12:00:00 - - - - - - - - -
17.01.2021 11:00:00 - - - - - - - - -
17.01.2021 10:00:00 - - - - - - - - -
17.01.2021 09:00:00 - - - - - - - - -
17.01.2021 08:00:00 - - - - - - - - -
17.01.2021 07:00:00 - - - - - - - - -
17.01.2021 06:00:00 - - - - - - - - -
17.01.2021 05:00:00 - - - - - - - - -
17.01.2021 04:00:00 - - - - - - - - -
17.01.2021 03:00:00 - - - - - - - - -
17.01.2021 02:00:00 - - - - - - - - -
17.01.2021 01:00:00 - - - - - - - - -
17.01.2021 00:00:00 - - - - - - - - -
16.01.2021 23:00:00 - - - - - - - - -
16.01.2021 22:00:00 - - - - - - - - -
16.01.2021 21:00:00 - - - - - - - - -
16.01.2021 20:00:00 - - - - - - - - -
16.01.2021 19:00:00 - - - - - - - - -
16.01.2021 18:00:00 - - - - - - - - -
16.01.2021 17:00:00 - - - - - - - - -
16.01.2021 16:00:00 - - - - - - - - -
16.01.2021 15:00:00 - - - - - - - - -
16.01.2021 14:00:00 - - - - - - - - -
16.01.2021 13:00:00 - - - - - - - - -
16.01.2021 12:00:00 - - - - - - - - -
16.01.2021 11:00:00 - - - - - - - - -
16.01.2021 10:00:00 - - - - - - - - -
16.01.2021 09:00:00 - - - - - - - - -
16.01.2021 08:00:00 - - - - - - - - -
16.01.2021 07:00:00 - - - - - - - - -
16.01.2021 06:00:00 - - - - - - - - -
16.01.2021 05:00:00 - - - - - - - - -
16.01.2021 04:00:00 - - - - - - - - -
16.01.2021 03:00:00 - - - - - - - - -
16.01.2021 02:00:00 - - - - - - - - -
16.01.2021 01:00:00 - - - - - - - - -
16.01.2021 00:00:00 - - - - - - - - -
15.01.2021 23:00:00 - - - - - - - - -
15.01.2021 22:00:00 - - - - - - - - -
15.01.2021 21:00:00 - - - - - - - - -
15.01.2021 20:00:00 - - - - - - - - -
15.01.2021 19:00:00 - - - - - - - - -
15.01.2021 18:00:00 - - - - - - - - -
15.01.2021 17:00:00 0,8 -1,4 4 2 - - WNW 1029,6 10
15.01.2021 16:00:00 1,2 -1,0 8 4 - - NW 1029,5 10
15.01.2021 15:00:00 1,2 -0,8 9 5 - - NW 1029,0 10
15.01.2021 14:00:00 1,1 -0,7 5 3 - - NW 1029,0 10
15.01.2021 13:00:00 1,0 -0,6 5 3 - - NNE 1029,0 10
15.01.2021 12:00:00 0,5 -0,9 8 4 - - NNE 1028,9 10
15.01.2021 11:00:00 0,2 -1,1 5 3 - - N 1028,2 10
15.01.2021 10:00:00 0,0 -1,2 8 4 - - N 1027,3 10
15.01.2021 09:00:00 -0,1 -1,6 9 5 - - NNE 1026,5 10
15.01.2021 08:00:00 -0,1 -2,0 5 3 - - N 1025,6 10
15.01.2021 07:00:00 -0,5 -2,5 9 5 - - NNE 1024,8 10
15.01.2021 06:00:00 -0,7 -2,5 11 6 - - NNE 1024,2 10
15.01.2021 05:00:00 -0,8 -2,7 11 6 - - NNE 1023,8 10
15.01.2021 04:00:00 -1,7 -4,0 9 5 - - NE 1023,1 10
15.01.2021 03:00:00 -0,7 -3,6 13 7 - - ENE 1022,5 10
15.01.2021 02:00:00 -0,9 -3,4 11 6 - - ENE 1021,6 10
15.01.2021 01:00:00 -0,4 -3,1 13 7 - - ENE 1021,1 10
15.01.2021 00:00:00 -0,1 -2,8 16 9 - - E 1020,6 10
14.01.2021 23:00:00 0,1 -2,6 18 10 - - E 1020,3 30
14.01.2021 22:00:00 0,2 -2,3 18 10 - - E 1019,7 10
14.01.2021 21:00:00 0,5 -2,0 16 9 - - E 1019,1 10
14.01.2021 20:00:00 0,7 -1,7 16 9 - - E 1018,5 10
14.01.2021 19:00:00 1,5 -1,9 18 10 - - E 1018,4 10
14.01.2021 18:00:00 1,5 -1,3 16 9 - - E 1018,4 10
14.01.2021 17:00:00 2,0 -1,0 16 9 - - E - 10
14.01.2021 16:00:00 1,7 -1,3 16 9 - - E 1018,3 10
14.01.2021 15:00:00 2,2 -1,3 18 10 - - E 1018,4 10
14.01.2021 14:00:00 2,3 -0,9 16 9 - - E 1018,9 10

tt = temperature
td = dewpoint
ff = wind speed
fx = gusts
dd = wind direction
ppp = reduced air pressure
vv = visibility

Next stations